TimeCST,TemperatureF,Dew PointF,Humidity,Sea Level PressureIn,VisibilityMPH,Wind Direction,Wind SpeedMPH,Gust SpeedMPH,PrecipitationIn,Events,Conditions,WindDirDegrees,DateUTC
12:12 AM,17.6,17.6,100,29.72,7.0,WSW,3.5,-,N/A,,Overcast,250,2012-11-25 06:12:00
12:32 AM,17.6,17.6,100,29.73,4.0,West,5.8,-,N/A,,Overcast,260,2012-11-25 06:32:00
12:53 AM,17.6,17.6,100,29.72,3.0,WSW,4.6,-,N/A,,Overcast,250,2012-11-25 06:53:00
1:12 AM,17.6,17.6,100,29.72,3.0,WSW,4.6,-,N/A,,Overcast,250,2012-11-25 07:12:00
1:33 AM,17.6,17.6,100,29.71,4.0,West,3.5,-,N/A,,Overcast,260,2012-11-25 07:33:00
1:53 AM,17.6,17.6,100,29.72,5.0,WSW,3.5,-,N/A,,Overcast,250,2012-11-25 07:53:00
2:13 AM,17.6,17.6,100,29.72,7.0,West,3.5,-,N/A,,Overcast,260,2012-11-25 08:13:00
2:32 AM,19.4,17.6,93,29.72,10.0,West,3.5,-,N/A,,Overcast,280,2012-11-25 08:32:00
2:53 AM,19.4,17.6,93,29.72,10.0,WNW,6.9,-,N/A,,Overcast,290,2012-11-25 08:53:00
3:13 AM,19.4,17.6,93,29.72,10.0,West,5.8,-,N/A,,Overcast,280,2012-11-25 09:13:00
3:32 AM,19.4,17.6,93,29.73,10.0,WNW,9.2,-,N/A,,Overcast,290,2012-11-25 09:32:00
3:53 AM,19.4,17.6,93,29.73,5.0,WNW,5.8,9.2,N/A,,Overcast,290,2012-11-25 09:53:00
4:12 AM,19.4,17.6,93,29.73,5.0,West,8.1,-,N/A,,Overcast,280,2012-11-25 10:12:00
4:33 AM,19.4,17.6,93,29.74,7.0,WNW,9.2,-,N/A,,Overcast,290,2012-11-25 10:33:00
4:53 AM,19.4,17.6,93,29.73,10.0,WNW,5.8,-,N/A,,Overcast,290,2012-11-25 10:53:00
5:12 AM,19.4,17.6,93,29.73,10.0,West,5.8,-,N/A,,Overcast,280,2012-11-25 11:12:00
5:33 AM,19.4,17.6,93,29.73,10.0,WNW,6.9,-,N/A,,Overcast,300,2012-11-25 11:33:00
5:52 AM,19.4,17.6,93,29.73,10.0,WNW,9.2,-,N/A,,Overcast,290,2012-11-25 11:52:00
6:13 AM,19.4,17.6,93,29.74,10.0,WNW,6.9,-,N/A,,Overcast,290,2012-11-25 12:13:00
6:33 AM,19.4,17.6,93,29.74,10.0,NW,12.7,17.3,N/A,,Overcast,310,2012-11-25 12:33:00
6:52 AM,19.4,17.6,93,29.74,10.0,NW,9.2,16.1,N/A,,Overcast,310,2012-11-25 12:52:00
7:13 AM,19.4,17.6,93,29.74,10.0,West,15.0,19.6,N/A,,Overcast,280,2012-11-25 13:13:00
7:33 AM,19.4,17.6,93,29.76,10.0,WNW,11.5,21.9,N/A,,Overcast,290,2012-11-25 13:33:00
7:52 AM,19.4,17.6,93,29.76,5.0,WNW,10.4,-,N/A,Snow,Light Snow,300,2012-11-25 13:52:00
8:13 AM,19.4,17.6,93,29.77,3.0,WNW,11.5,-,N/A,Snow,Light Snow,290,2012-11-25 14:13:00
8:33 AM,19.4,15.8,86,29.77,3.0,West,8.1,20.7,N/A,Snow,Light Snow,280,2012-11-25 14:33:00
8:52 AM,17.6,15.8,93,29.78,3.0,WNW,10.4,17.3,N/A,Snow,Light Snow,290,2012-11-25 14:52:00
9:13 AM,17.6,15.8,93,29.78,2.0,WNW,5.8,18.4,N/A,Snow,Light Snow,290,2012-11-25 15:13:00
9:33 AM,17.6,15.8,93,29.79,2.5,WNW,9.2,-,N/A,Snow,Light Snow,290,2012-11-25 15:33:00
9:52 AM,19.4,15.8,86,29.79,1.8,West,10.4,-,N/A,Snow,Light Snow,270,2012-11-25 15:52:00
10:13 AM,17.6,15.8,93,29.80,4.0,West,8.1,-,N/A,Snow,Light Snow,270,2012-11-25 16:13:00
10:33 AM,17.6,15.8,93,29.81,2.0,WNW,8.1,-,N/A,Snow,Light Snow,290,2012-11-25 16:33:00
10:52 AM,17.6,14.0,86,29.81,3.0,West,10.4,17.3,N/A,Snow,Light Snow,280,2012-11-25 16:52:00
11:13 AM,17.6,14.0,86,29.81,3.0,West,8.1,-,N/A,Snow,Light Snow,280,2012-11-25 17:13:00
11:33 AM,17.6,14.0,86,29.81,4.0,WNW,9.2,-,N/A,Snow,Light Snow,290,2012-11-25 17:33:00
11:52 AM,17.6,14.0,86,29.81,7.0,WNW,6.9,16.1,N/A,Snow,Light Snow,300,2012-11-25 17:52:00
12:13 PM,19.4,14.0,80,29.81,7.0,West,10.4,-,N/A,Snow,Light Snow,280,2012-11-25 18:13:00
12:33 PM,19.4,14.0,80,29.81,10.0,West,6.9,-,N/A,Snow,Light Snow,270,2012-11-25 18:33:00
12:53 PM,19.4,12.2,74,29.81,7.0,WNW,9.2,17.3,N/A,Snow,Light Snow,290,2012-11-25 18:53:00
1:13 PM,19.4,14.0,80,29.81,5.0,West,8.1,-,N/A,Snow,Light Snow,280,2012-11-25 19:13:00
1:32 PM,19.4,14.0,80,29.81,5.0,West,11.5,-,N/A,Snow,Light Snow,270,2012-11-25 19:32:00
1:53 PM,19.4,14.0,80,29.81,5.0,West,9.2,-,N/A,Snow,Light Snow,270,2012-11-25 19:53:00
2:13 PM,19.4,14.0,80,29.82,4.0,West,8.1,-,N/A,Snow,Light Snow,270,2012-11-25 20:13:00
2:32 PM,19.4,14.0,80,29.82,10.0,West,9.2,17.3,N/A,Snow,Light Snow,270,2012-11-25 20:32:00
2:53 PM,19.4,14.0,80,29.82,10.0,West,8.1,-,N/A,Snow,Light Snow,270,2012-11-25 20:53:00
3:13 PM,19.4,15.8,86,29.83,3.0,West,8.1,-,N/A,Snow,Light Snow,260,2012-11-25 21:13:00
3:32 PM,19.4,14.0,80,29.83,10.0,West,9.2,-,N/A,Snow,Light Snow,270,2012-11-25 21:32:00
3:53 PM,19.4,14.0,80,29.84,10.0,West,9.2,18.4,N/A,,Overcast,270,2012-11-25 21:53:00
4:13 PM,19.4,15.8,86,29.84,0.5,WNW,6.9,-,N/A,Snow,Light Snow,290,2012-11-25 22:13:00
4:32 PM,19.4,15.8,86,29.85,1.0,West,5.8,-,N/A,Snow,Light Snow,280,2012-11-25 22:32:00
4:53 PM,19.4,15.8,86,29.86,7.0,WNW,6.9,-,N/A,Snow,Light Snow,300,2012-11-25 22:53:00
5:12 PM,17.6,15.8,93,29.87,1.2,NW,10.4,-,N/A,Snow,Snow,310,2012-11-25 23:12:00
5:33 PM,17.6,12.2,79,29.88,7.0,WNW,11.5,17.3,N/A,Snow,Light Snow,300,2012-11-25 23:33:00
5:53 PM,15.8,10.4,79,29.90,7.0,WNW,15.0,20.7,N/A,Snow,Light Snow,300,2012-11-25 23:53:00
6:12 PM,15.8,10.4,79,29.91,10.0,WNW,9.2,16.1,N/A,,Overcast,300,2012-11-26 00:12:00
6:33 PM,15.8,10.4,79,29.92,7.0,WNW,9.2,-,N/A,Snow,Light Snow,300,2012-11-26 00:33:00
6:53 PM,14.0,10.4,86,29.93,7.0,WNW,10.4,18.4,N/A,Snow,Light Snow,290,2012-11-26 00:53:00
7:12 PM,14.0,8.6,79,29.94,7.0,WNW,9.2,18.4,N/A,Snow,Light Snow,300,2012-11-26 01:12:00
7:33 PM,12.2,8.6,85,29.95,4.0,WNW,8.1,-,N/A,Snow,Light Snow,290,2012-11-26 01:33:00
7:53 PM,12.2,8.6,85,29.96,3.0,NW,11.5,17.3,N/A,Snow,Light Snow,310,2012-11-26 01:53:00
8:12 PM,12.2,8.6,85,29.97,4.0,NW,6.9,-,N/A,Snow,Light Snow,310,2012-11-26 02:12:00
8:33 PM,12.2,6.8,79,29.98,4.0,NW,10.4,18.4,N/A,Snow,Light Snow,320,2012-11-26 02:33:00
8:53 PM,10.4,5.0,79,29.99,10.0,NW,8.1,20.7,N/A,,Overcast,320,2012-11-26 02:53:00
9:12 PM,10.4,3.2,73,30.00,10.0,NNW,6.9,-,N/A,,Overcast,330,2012-11-26 03:12:00
9:33 PM,8.6,3.2,79,30.01,10.0,NNW,5.8,-,N/A,,Scattered Clouds,330,2012-11-26 03:33:00
9:53 PM,8.6,3.2,79,30.02,10.0,NNW,6.9,-,N/A,,Scattered Clouds,330,2012-11-26 03:53:00
10:12 PM,6.8,3.2,85,30.03,10.0,NNW,4.6,-,N/A,,Clear,330,2012-11-26 04:12:00
10:33 PM,6.8,3.2,85,30.04,10.0,NW,5.8,-,N/A,,Scattered Clouds,310,2012-11-26 04:33:00
10:53 PM,6.8,3.2,85,30.05,10.0,NW,4.6,-,N/A,,Scattered Clouds,320,2012-11-26 04:53:00
11:12 PM,6.8,3.2,85,30.06,10.0,NNW,6.9,-,N/A,,Mostly Cloudy,330,2012-11-26 05:12:00
11:33 PM,6.8,3.2,85,30.06,10.0,NW,5.8,-,N/A,,Overcast,320,2012-11-26 05:33:00
11:53 PM,6.8,1.4,79,30.07,10.0,NW,5.8,-,N/A,,Scattered Clouds,320,2012-11-26 05:53:00